Location: *
(48.8489°N, 2.3218°E)
Time: 23:44:10
(UTC+00:00)

Thor Agena Rocket - Pass Details

Date: 23 August 2019
Orbit: 760 x 807 km, 99.0° (Epoch: 21 September)

Event Time Altitude Azimuth Distance (km) Brightness Sun altitude
Rises 20:51:23 0° 21° (NNE) 3,280 7.1 -17.7°
Reaches altitude 10° 20:53:52 10° 30° (NNE) 2,355 6.2 -18.0°
Maximum altitude 20:58:41 38° 98° (E) 1,206 4.1 -18.6°
Enters shadow 20:59:41 34° 123° (ESE) 1,279 4.1 -18.7°
